QPF
0.01 0.01 0.01 0.02 0.04 0.06 0.06 0.04 0.04 0.02 0.02 0.02 0.02 0.03 0.04 0.04 0.04 0.03 0.03 0.04 0.09 0.20
0.04 0.03 0.02 0.03 0.05 0.09 0.12 0.10 0.09 0.06 0.04 0.02 0.03 0.03 0.03 0.03 0.03 0.02 0.03 0.03 0.04 0.04
0.10 0.08 0.08 0.06 0.05 0.08 0.11 0.12 0.10 0.06 0.03 0.02 0.02 0.03 0.03 0.03 0.02 0.02 0.01 0.02 0.02 0.04
0.14 0.15 0.08 0.20 0.14 0.08 0.15 0.15 0.12 0.09 0.05 0.02 0.01 0.02 0.02 0.02 0.02 0.01 0.01 0.01 0.01 0.01
0.20 0.16 0.17 0.11 0.40 0.24 0.17 0.27 0.15 0.11 0.07 0.03 0.00 0.01 0.01 0.02 0.01 0.01 0.01 0.01 0.01 0.01
0.20 0.16 0.13 0.15 0.11 0.46 0.38 0.33 0.28 0.15 0.08 0.03 0.01 0.00 0.00 0.00 0.01 0.01 0.01 0.01 0.01 0.00
0.13 0.22 0.14 0.15 0.12 0.14 0.48 0.40 0.24 0.27 0.12 0.04 0.01 0.00 0.00 0.00 0.00 0.00 0.01 0.01 0.01 0.00
0.02 0.11 0.18 0.14 0.16 0.10 0.13 0.37 0.26 0.20 0.17 0.06 0.01 0.01 0.00 0.00 0.00 0.00 0.00 0.00 0.00 0.00
0.00 0.02 0.08 0.11 0.18 0.16 0.09 0.13 0.17 0.07 0.07 0.06 0.02 0.02 0.01 0.00 0.00 0.00 0.00 0.00 0.00 0.00
0.00 0.00 0.01 0.03 0.09 0.22 0.17 0.07 0.09 0.07 0.04 0.01 0.00 0.01 0.01 0.00 0.00 0.00 0.01 0.00 0.00 0.00
0.00 0.00 0.00 0.01 0.01 0.04 0.15 0.17 0.06 0.04 0.02 0.01 0.00 0.00 0.00 0.00 0.00 0.00 0.00 0.00 0.00 0.00
0.00 0.00 0.00 0.00 0.00 0.00 0.01 0.03 0.08 0.04 0.01 0.01 0.00 0.00 0.00 0.00 0.00 0.00 0.00 0.00 0.00 0.00
0.00 0.00 0.00 0.00 0.00 0.00 0.00 0.00 0.00 0.01 0.01 0.00 0.00 0.00 0.00 0.00 0.00 0.00 0.00 0.00 0.00 0.00
0.00 0.00 0.00 0.00 0.00 0.00 0.00 0.00 0.00 0.00 0.00 0.00 0.00 0.00 0.00 0.00 0.00 0.00 0.00 0.00 0.00 0.00
MSLP
1015.40 1014.88 1013.64 1012.63 1011.62 1008.92 1007.01 1006.11 1006.32 1006.47 1006.79 1007.46 1008.40 1009.07 1009.74 1010.39 1011.11 1011.77 1012.38 1013.10 1013.74 1014.33
1015.96 1015.31 1013.95 1012.83 1011.71 1009.30 1008.10 1006.13 1005.80 1005.91 1006.24 1007.06 1007.86 1008.49 1009.08 1009.66 1010.40 1011.09 1011.76 1012.52 1013.16 1013.89
1016.49 1015.55 1013.95 1013.18 1011.79 1010.03 1008.39 1006.86 1005.54 1005.56 1005.83 1006.45 1007.24 1007.86 1008.51 1009.10 1009.81 1010.47 1011.14 1011.84 1012.57 1013.24
1016.25 1015.45 1015.14 1013.76 1011.31 1010.47 1009.06 1007.47 1006.28 1005.22 1005.49 1005.99 1006.63 1007.34 1008.02 1008.65 1009.32 1009.95 1010.69 1011.34 1012.09 1012.73
1016.58 1015.71 1014.74 1013.73 1012.17 1010.74 1010.06 1008.46 1006.85 1005.48 1004.97 1005.39 1006.15 1006.87 1007.58 1008.35 1008.96 1009.57 1010.28 1011.04 1011.74 1012.29
1016.41 1015.52 1014.73 1014.27 1012.11 1011.56 1010.80 1009.67 1007.91 1006.35 1005.37 1005.30 1006.20 1006.69 1007.39 1007.98 1008.63 1009.26 1009.93 1010.70 1011.20 1011.83
1016.36 1015.84 1015.41 1013.86 1012.56 1012.27 1010.58 1010.37 1008.02 1008.35 1007.64 1005.50 1006.48 1007.14 1007.54 1007.90 1008.49 1009.10 1009.83 1010.36 1010.84 1011.42
1016.55 1015.52 1014.71 1013.93 1013.14 1013.21 1011.24 1010.49 1009.17 1010.34 1009.41 1007.68 1007.18 1007.85 1008.14 1008.30 1008.54 1009.08 1009.68 1010.20 1010.68 1011.14
1016.33 1015.76 1015.29 1015.21 1014.10 1013.37 1012.81 1012.03 1010.68 1010.99 1008.95 1009.04 1008.71 1008.82 1008.58 1008.66 1009.10 1009.30 1009.60 1010.12 1010.51 1010.85
1017.04 1016.21 1015.21 1014.79 1013.94 1013.39 1013.22 1012.08 1011.61 1011.71 1010.69 1010.82 1009.51 1009.47 1009.03 1008.97 1009.55 1009.76 1010.03 1010.17 1010.37 1010.63
1016.89 1016.39 1015.69 1014.87 1014.35 1013.83 1012.80 1012.87 1012.31 1012.01 1012.31 1011.13 1009.89 1010.22 1009.61 1009.53 1009.74 1010.01 1010.19 1010.37 1010.51 1010.41
1016.76 1016.20 1015.66 1015.16 1014.47 1013.53 1013.15 1013.12 1012.83 1012.96 1012.81 1011.45 1010.51 1010.35 1009.79 1009.71 1009.95 1010.21 1010.17 1010.31 1010.60 1010.68
1017.19 1016.31 1015.70 1015.34 1014.62 1013.97 1013.73 1013.77 1013.20 1012.81 1011.99 1010.54 1011.21 1010.73 1010.23 1010.11 1010.22 1010.29 1010.21 1010.34 1010.49 1010.53
1016.94 1016.21 1015.59 1015.08 1014.74 1014.13 1013.86 1013.29 1012.45 1012.54 1011.62 1011.36 1011.25 1010.63 1010.38 1010.31 1010.02 1010.33 1010.22 1010.07 1010.20 1010.17
Thickness
5397 5413 5434 5454 5473 5507 5535 5553 5562 5570 5576 5579 5578 5581 5583 5585 5586 5587 5589 5589 5588 5588
5374 5390 5413 5435 5455 5487 5507 5536 5549 5558 5565 5565 5566 5569 5573 5577 5578 5579 5581 5581 5582 5581
5356 5371 5394 5413 5436 5463 5488 5512 5536 5546 5553 5556 5557 5560 5562 5567 5569 5570 5572 5574 5574 5575
5344 5356 5367 5390 5422 5441 5466 5491 5513 5534 5540 5545 5547 5549 5552 5556 5559 5562 5563 5565 5565 5566
5333 5346 5361 5378 5401 5425 5443 5468 5495 5516 5530 5534 5535 5539 5543 5545 5548 5552 5555 5555 5556 5558
5322 5338 5352 5363 5393 5408 5426 5450 5469 5499 5511 5522 5521 5527 5530 5534 5537 5541 5544 5545 5548 5548
5315 5328 5338 5360 5379 5393 5415 5432 5454 5466 5482 5504 5506 5510 5517 5524 5527 5531 5532 5536 5538 5539
5310 5324 5339 5351 5366 5373 5401 5413 5438 5439 5453 5478 5490 5493 5501 5509 5517 5520 5522 5525 5529 5530
5308 5317 5324 5333 5351 5364 5379 5396 5414 5419 5447 5454 5467 5474 5486 5495 5500 5507 5513 5516 5518 5521
5295 5307 5321 5330 5344 5356 5369 5387 5401 5406 5426 5433 5452 5460 5473 5483 5484 5490 5495 5502 5507 5510
5292 5300 5312 5325 5333 5346 5364 5373 5388 5397 5403 5421 5440 5445 5458 5468 5473 5477 5483 5487 5492 5499
5288 5297 5308 5318 5328 5344 5353 5362 5373 5380 5387 5407 5424 5436 5448 5457 5462 5466 5473 5477 5479 5485
5279 5292 5302 5311 5323 5335 5343 5349 5361 5368 5387 5409 5408 5423 5435 5444 5450 5455 5462 5468 5471 5476
5275 5287 5298 5307 5316 5329 5335 5345 5360 5365 5382 5391 5400 5413 5424 5432 5441 5444 5452 5460 5463 5469